CW7664 Weather Reports


Display with metric or nautical units.
time (UTC)temp
F
wind
direction
speed
MPH
gust
MPH
rain 1hr
in
rain 24hr
in
rain mn
in
humidity
%
barometer
mb
20260505010047 66 100 2.0 8.0 0.00 0.00 0.00 54 1013.1
20260505004543 66 241 4.0 11.0 0.00 0.00 0.00 59 1013.1
20260505003042 66 207 3.0 11.0 0.00 0.00 0.00 60 1013.1
20260505001542 67 238 3.0 8.0 0.00 0.00 0.00 58 1012.9
20260505000041 67 167 6.0 11.0 0.00 0.00 0.00 58 1012.7
20260504234542 68 216 5.0 12.0 0.00 0.00 0.00 55 1012.7
20260504233042 68 13 4.0 13.0 0.00 0.00 0.00 57 1012.7
20260504231541 69 213 5.0 12.0 0.00 0.00 0.00 54 1012.7
20260504230039 69 224 5.0 15.0 0.00 0.00 0.00 53 1012.8
20260504224538 70 200 6.0 10.0 0.00 0.00 0.00 51 1013.0
20260504223038 70 249 5.0 14.0 0.00 0.00 0.00 47 1013.0
20260504221540 69 183 5.0 11.0 0.00 0.00 0.00 49 1013.2
20260504220041 68 229 5.0 15.0 0.00 0.00 0.00 50 1013.5
20260504214547 68 260 4.0 13.0 0.00 0.00 0.00 50 1013.6
20260504213047 68 184 5.0 11.0 0.00 0.00 0.00 49 1013.8
20260504211537 69 210 5.0 13.0 0.00 0.00 0.00 48 1013.8
20260504210034 70 192 7.0 17.0 0.00 0.00 0.00 49 1013.7
20260504204534 69 230 5.0 11.0 0.00 0.00 0.00 47 1013.7
20260504203033 70 284 6.0 13.0 0.00 0.00 0.00 45 1013.7
20260504201533 70 215 7.0 20.0 0.00 0.00 0.00 47 1013.6
20260504200039 69 209 6.0 15.0 0.00 0.00 0.00 47 1013.6
20260504194531 70 317 7.0 13.0 0.00 0.00 0.00 45 1013.4
20260504193030 70 232 6.0 14.0 0.00 0.00 0.00 47 1013.4
20260504191543 71 218 5.0 13.0 0.00 0.00 0.00 42 1013.4
20260504190027 71 179 4.0 11.0 0.00 0.00 0.00 41 1013.4
20260504184527 71 215 3.0 8.0 0.00 0.00 0.00 44 1013.5
20260504183038 71 223 4.0 7.0 0.00 0.00 0.00 43 1013.7
20260504181526 71 261 3.0 7.0 0.00 0.00 0.00 45 1013.8
20260504180021 69 182 3.0 7.0 0.00 0.00 0.00 49 1013.8
20260504174520 68 201 6.0 10.0 0.00 0.00 0.00 52 1013.8
20260504173016 68 186 4.0 12.0 0.00 0.00 0.00 51 1013.7
20260504171514 68 270 2.0 7.0 0.00 0.00 0.00 54 1013.8
20260504081557 61 283 0.0 2.0 0.00 0.00 0.00 74 1013.6
20260504044552 61 200 2.0 4.0 0.00 0.00 0.00 70 1013.4
20260504043045 61 225 2.0 5.0 0.00 0.00 0.00 70 1012.9
20260504041543 62 223 2.0 5.0 0.00 0.00 0.00 70 1012.9
20260504040057 62 232 2.0 5.0 0.00 0.00 0.00 68 1012.7
20260504034556 62 215 2.0 7.0 0.00 0.00 0.00 64 1012.5
20260504033105 62 234 1.0 4.0 0.00 0.00 0.00 66 1012.4
20260504031542 62 193 2.0 6.0 0.00 0.00 0.00 66 1012.2
20260504030046 63 176 4.0 7.0 0.00 0.00 0.00 66 1011.9
20260504024544 63 219 2.0 6.0 0.00 0.00 0.00 67 1012.0
20260504023057 64 207 2.0 4.0 0.00 0.00 0.00 66 1012.0
20260504021539 64 211 1.0 7.0 0.00 0.00 0.00 64 1011.8
20260504020039 64 237 1.0 6.0 0.00 0.00 0.00 65 1011.9
20260504014546 64 248 4.0 8.0 0.00 0.00 0.00 66 1012.0
20260504013045 64 219 2.0 7.0 0.00 0.00 0.00 66 1011.6
20260504011538 64 221 3.0 10.0 0.00 0.00 0.00 64 1011.9